This is the latest recevied weather packets stored in our database for station/object KJ4RDP-13. If no packets are shown the sender has not sent any weather packets the latest 10 day(s).
| Time | Temp. | Humidity | Pressure | Rain* | Wind** | Luminosity | Snow |
|---|---|---|---|---|---|---|---|
| 1777917959 | 22.22° C | 44% | 1015.2 hPa | 0 mm | - | 642 W/m² | - |
| 1777917657 | 21.67° C | 40% | 1015.7 hPa | 0 mm | - | 668 W/m² | - |
| 1777917354 | 21.11° C | 44% | 1015.2 hPa | 0 mm | - | 633 W/m² | - |
| 1777917051 | 21.67° C | 47% | 1015.2 hPa | 0 mm | - | 723 W/m² | - |
| 1777916749 | 21.67° C | 43% | 1015.2 hPa | 0 mm | - | 709 W/m² | - |
| 1777916445 | 21.67° C | 39% | 1015.7 hPa | 0 mm | - | 711 W/m² | - |
| 1777916142 | 21.67° C | 42% | 1015.7 hPa | 0 mm | - | 718 W/m² | - |
| 1777915840 | 22.22° C | 41% | 1015.7 hPa | 0 mm | - | 706 W/m² | - |
| 1777915536 | 21.11° C | 41% | 1015.7 hPa | 0 mm | - | 661 W/m² | - |
| 1777915233 | 20° C | 44% | 1015.7 hPa | 0 mm | - | 708 W/m² | - |
| 1777914929 | 20.56° C | 43% | 1016 hPa | 0 mm | - | 733 W/m² | - |
| 1777914627 | 20.56° C | 42% | 1016 hPa | 0 mm | - | 723 W/m² | - |
| 1777914322 | 20.56° C | 44% | 1016 hPa | 0 mm | - | 677 W/m² | - |
| 1777914020 | 21.11° C | 42% | 1016 hPa | 0 mm | - | 712 W/m² | - |
| 1777913716 | 20.56° C | 45% | 1016.4 hPa | 0 mm | - | 695 W/m² | - |
| 1777913413 | 20.56° C | 48% | 1016.4 hPa | 0 mm | - | 684 W/m² | - |
| 1777913109 | 21.67° C | 44% | 1016.4 hPa | 0 mm | - | 655 W/m² | - |
| 1777912806 | 21.11° C | 47% | 1016.4 hPa | 0 mm | - | 685 W/m² | - |
| 1777912501 | 21.11° C | 44% | 1016.4 hPa | 0 mm | - | 687 W/m² | - |
| 1777912198 | 20.56° C | 44% | 1016.7 hPa | 0 mm | - | 672 W/m² | - |
| 1777911895 | 20.56° C | 46% | 1016.7 hPa | 0 mm | - | 612 W/m² | - |
| 1777911591 | 20.56° C | 43% | 1016.4 hPa | 0 mm | - | 549 W/m² | - |
| 1777911287 | 20.56° C | 44% | 1016.7 hPa | 0 mm | - | 677 W/m² | - |
| 1777910984 | 20° C | 42% | 1016.7 hPa | 0 mm | - | 684 W/m² | - |
| 1777910683 | 20° C | 44% | 1016.7 hPa | 0 mm | - | 646 W/m² | - |
* Rain latest hour (hover to see other rain measurements)
** Current wind speed in m/s (hover to see current wind gust speed)